This is the latest recevied weather packets stored in our database for station/object N4HAC. If no packets are shown the sender has not sent any weather packets the latest 10 day(s).
| Time | Temp. | Humidity | Pressure | Rain* | Wind** | Luminosity | Snow |
|---|---|---|---|---|---|---|---|
| 1777938590 | 21.11° C | 49% | 1004.5 hPa | 0 mm | - | 9 W/m² | - |
| 1777938288 | 21.11° C | 49% | 1004.5 hPa | 0 mm | - | 15 W/m² | - |
| 1777937984 | 21.67° C | 48% | 1004.3 hPa | 0 mm | - | 15 W/m² | - |
| 1777937680 | 21.67° C | 48% | 1004.3 hPa | 0 mm | - | 20 W/m² | - |
| 1777937377 | 21.67° C | 47% | 1004.6 hPa | 0 mm | - | 24 W/m² | - |
| 1777937074 | 21.67° C | 47% | 1004.5 hPa | 0 mm | - | 21 W/m² | - |
| 1777936771 | 21.67° C | 46% | 1004.2 hPa | 0 mm | - | 23 W/m² | - |
| 1777936467 | 22.22° C | 45% | 1004.3 hPa | 0 mm | - | 34 W/m² | - |
| 1777936164 | 22.22° C | 45% | 1004.4 hPa | 0 mm | - | 41 W/m² | - |
| 1777935861 | 22.22° C | 43% | 1004.5 hPa | 0 mm | - | 54 W/m² | - |
| 1777935560 | 22.22° C | 44% | 1004.3 hPa | 0 mm | - | 53 W/m² | - |
| 1777935256 | 22.22° C | 44% | 1004.4 hPa | 0 mm | - | 30 W/m² | - |
| 1777934954 | 22.22° C | 44% | 1004.2 hPa | 0 mm | - | 28 W/m² | - |
| 1777934650 | 22.22° C | 44% | 1004.3 hPa | 0 mm | - | 39 W/m² | - |
| 1777934347 | 22.78° C | 43% | 1004.1 hPa | 0 mm | - | 52 W/m² | - |
| 1777934042 | 22.78° C | 42% | 1004.2 hPa | 0 mm | - | 51 W/m² | - |
| 1777933739 | 23.33° C | 42% | 1004 hPa | 0 mm | - | 46 W/m² | - |
| 1777933435 | 23.33° C | 41% | 1004.1 hPa | 0 mm | - | 88 W/m² | - |
| 1777933134 | 23.33° C | 41% | 1004 hPa | 0 mm | - | 89 W/m² | - |
| 1777932830 | 23.89° C | 40% | 1003.9 hPa | 0 mm | - | 95 W/m² | - |
| 1777932528 | 23.89° C | 39% | 1003.9 hPa | 0 mm | - | 99 W/m² | - |
| 1777932224 | 24.44° C | 40% | 1003.8 hPa | 0 mm | - | 105 W/m² | - |
| 1777931922 | 23.89° C | 40% | 1003.9 hPa | 0 mm | - | 108 W/m² | - |
| 1777931618 | 24.44° C | 40% | 1003.9 hPa | 0 mm | - | 110 W/m² | - |
| 1777931314 | 24.44° C | 41% | 1004 hPa | 0 mm | - | 108 W/m² | - |
* Rain latest hour (hover to see other rain measurements)
** Current wind speed in m/s (hover to see current wind gust speed)